Location: D�pe
(52.6057°N, 8.1808°E)
Time: 07:13:32
(UTC+00:00)

Cosmos 44 Rocket - Pass Details

Date: 29 October 2020
Orbit: 642 x 748 km, 65.1° (Epoch: 01 December)

Event Time Altitude Azimuth Distance (km) Brightness Sun altitude
Rises 18:13:38 0° 199° (SSW) 2,991 6.8 -20.4°
Reaches altitude 10° 18:15:59 10° 193° (SSW) 2,098 5.9 -20.8°
Enters shadow 18:19:56 42° 142° (SE) 978 3.7 -21.4°
